Tartu current weather conditions

sailwx.info

Wind from 260 at 19 knots

Air temperature 8.0° C
Visibility: greater than 5.4 NM
Dewpoint -3.0° C

Last reported at 2017-Mar-27 11:50 UTC.
Time now 2017-Mar-27 14:47 UTC

Location: N 58°18' E 026°41'.
View on Google Maps.

See reports from other nearby stations

  
Tides and Currents Weather Stations Pressure Air Temp Water Temp Dewpoint Dewpoint Depression Visibility Wind Speed Wind Dir Waves Ship Positions
date/time (UTC)wind fromknots sea level pressurealtimeterstation pressurevisibilityair tempwater tempwave heightnotes
2017-Mar-27 13:50 260 15 5.4 8.0
2017-Mar-27 12:50 270 19 5.4 8.0
2017-Mar-27 11:50 260 19 5.4 8.0
2017-Mar-27 10:50 270 19 5.4 8.0
2017-Mar-27 09:50 280 17 5.4 7.0
2017-Mar-27 08:50 290 11 5.4 6.0
2017-Mar-27 07:50 290 11 5.4 5.0
2017-Mar-27 06:50 300 12 5.4 4.0
2017-Mar-27 05:50 300 8 5.4 3.0
2017-Mar-27 04:50 290 9 5.4 3.0
2017-Mar-27 03:50 300 8 5.4 2.0
2017-Mar-27 02:50 290 9 5.4 3.0
2017-Mar-27 01:50 300 7 5.4 3.0
2017-Mar-27 00:50 300 8 5.4 4.0
2017-Mar-26 23:50 300 11 5.4 5.0
2017-Mar-26 22:50 300 12 5.4 5.0
2017-Mar-26 21:50 290 8 5.4 5.0
2017-Mar-26 20:50 270 11 5.4 4.0
2017-Mar-26 19:50 270 15 5.4 5.0
2017-Mar-26 18:50 260 19 5.4 5.0
2017-Mar-26 17:50 260 20 5.4 5.0
2017-Mar-26 16:50 250 20 5.4 5.0
2017-Mar-26 15:50 260 22 5.4 5.0
2017-Mar-26 14:50 250 25 gusting 36 5.4 5.0 Light rain showers.
2017-Mar-26 13:50 240 19 5.4 4.0
2017-Mar-26 12:50 230 15 5.4 3.0
2017-Mar-26 11:50 250 17 1.6 3.0 Light rain.
2017-Mar-26 10:50 240 13 5.4 4.0 Light rain.
2017-Mar-26 09:50 240 12 5.4 4.0
2017-Mar-26 08:50 250 13 5.4 4.0
2017-Mar-26 07:50 250 12 5.4 4.0
2017-Mar-26 06:50 250 11 5.4 3.0
2017-Mar-26 05:50 240 6 5.4 2.0
2017-Mar-26 04:50 250 6 5.4 1.0
2017-Mar-26 03:50 270 5 5.4 1.0
2017-Mar-26 02:50 5.4 1.0
2017-Mar-26 01:50 290 4 5.4 1.0
2017-Mar-26 00:50 300 4 5.4 1.0
2017-Mar-25 23:50 290 4 5.4 1.0
2017-Mar-25 22:50 300 4 5.4 1.0
2017-Mar-25 21:50 320 5 5.4 1.0
2017-Mar-25 20:50 330 6 5.4 1.0
2017-Mar-25 19:50 330 5 5.4 2.0
2017-Mar-25 18:50 340 7 5.4 2.0
2017-Mar-25 17:50 320 5 4.3 2.0 Light rain.
2017-Mar-25 16:50 290 5 5.4 3.0
2017-Mar-25 15:50 280 7 3.8 3.0 Light rain.
2017-Mar-25 14:50 250 6 5.4 4.0